Regional Weather Roundup
Issued by NWS

Home | Current Version | Previous Version | Graphics & Text | Print | Product List | Glossary On
Versions: 1 2 3 4 5 6 7 8 9 10 11 12 13 14 15 16 17 18 19 20 21 22 23 24 25 26 27 28 29 30 31 32 33 34 35 36 37 38 39 40 41 42 43 44 45 46 47 48 49 50
000
ASUS43 KOAX 181110
RWRNE

WEATHER ROUNDUP FOR NEBRASKA
NATIONAL WEATHER SERVICE OMAHA NE
600 AM CDT WED OCT 18 2017

NOTES: SATELLITE DATA IS BEING USED TO AUGMENT CLOUD COVER ABOVE
       12000 FEET.
       "FAIR" INDICATES FEW OR NO CLOUDS BELOW 12,000 FEET WITH NO
       SIGNIFICANT WEATHER AND/OR OBSTRUCTIONS TO VISIBILITY.


NEZ001>004-019>022-054>056-181200-
NEBRASKA PANHANDLE

CITY           SKY/WX    TMP DP  RH WIND       PRES   REMARKS
SCOTTSBLUFF    PTCLDY    46  26  45 N7        29.95R
ALLIANCE       CLOUDY    45  25  45 W9        29.91R
CHADRON        PTCLDY    45  22  40 SW9       29.91R
GORDON         FAIR      42  28  56 CALM      29.90R
KIMBALL        CLOUDY    52  21  29 W13       30.01S
SIDNEY         CLOUDY    44  25  47 NW6       29.99R
$$

NEZ057>060-069>072-079>082-181200-
SOUTHWEST NEBRASKA

CITY           SKY/WX    TMP DP  RH WIND       PRES   REMARKS
NORTH PLATTE   CLOUDY    46  35  65 NW8       29.91R
IMPERIAL       CLOUDY    43  29  57 W3        29.94S
LEXINGTON      CLOUDY    47  38  71 CALM      29.90S
MCCOOK         PTCLDY    47  37  68 W10       29.92R
OGALLALA       CLOUDY    39  32  75 W5        29.94R
$$

NEZ005>010-023>029-035>040-094-181200-
NORTH CENTRAL NEBRASKA

CITY           SKY/WX    TMP DP  RH WIND       PRES   REMARKS
VALENTINE      CLOUDY    50  27  40 W8        29.81R
AINSWORTH      CLOUDY    53  31  43 SW7       29.82R
BROKEN BOW     PTCLDY    53  37  54 SW6       29.86F
O`NEILL        CLOUDY    50  40  68 S10       29.81S
ORD            CLOUDY    46  38  73 E3        29.84F
THEDFORD       CLOUDY    57  26  30 W6        29.87R
$$

NEZ041-046>049-061>064-073>077-083>087-181200-
SOUTH CENTRAL NEBRASKA

CITY           SKY/WX    TMP DP  RH WIND       PRES   REMARKS
GRAND ISLAND   CLEAR     49  44  83 S9        29.90S
AURORA         PTCLDY    47  43  85 S7        29.91S
HASTINGS       CLEAR     47  41  80 S6        29.92S
HEBRON         CLEAR     44  42  93 CALM      29.95S
HOLDREGE       CLOUDY    49  42  75 S6        29.91S
KEARNEY        CLOUDY    46  40  79 S5        29.91S
YORK           CLOUDY    48  45  87 S7        29.92S
$$

NEZ011>018-030>034-042>045-181200-
NORTHEAST NEBRASKA

CITY           SKY/WX    TMP DP  RH WIND       PRES   REMARKS
NORFOLK        CLEAR     51  44  77 S7        29.85F
ALBION         PTCLDY    49  43  82 S7        29.86F
BLAIR          CLEAR     51  46  82 S9        29.92S
COLUMBUS       CLEAR     52  44  74 S8        29.90F
FREMONT        CLEAR     53  45  74 S9        29.92S
TEKAMAH        CLEAR     47  44  90 S7        29.91S
WAYNE          CLEAR     51  47  87 S12       29.85S
$$

NEZ050>053-065>068-078-088>093-181200-
SOUTHEAST NEBRASKA

CITY           SKY/WX    TMP DP  RH WIND       PRES   REMARKS
LINCOLN        CLEAR     49  44  83 S7        29.96R
OMAHA EPPLEY   CLEAR     50  44  80 S13       29.94S
BEATRICE       CLEAR     50  46  83 S8        29.96S
FALLS CITY     CLEAR     51  45  79 S8        29.98F
NEBRASKA CITY  CLEAR     49  47  93 S12       29.96S
PLATTSMOUTH    CLEAR     49  46  88 S8        29.95R
$$

NEZ044-045-051>053-067-181200-
OMAHA AREA

CITY           SKY/WX    TMP DP  RH WIND       PRES   REMARKS
OMAHA EPPLEY   CLEAR     50  44  80 S13       29.94S
BLAIR          CLEAR     51  46  82 S9        29.92S
FREMONT        CLEAR     53  45  74 S9        29.92S
MILLARD        CLEAR     50  46  87 SE5       29.94S
OFFUTT AFB     CLEAR     46  43  90 SE6       29.95R
PLATTSMOUTH    CLEAR     49  46  88 S8        29.95R
WAHOO          FAIR      47  43  85 S5        29.93R
$$




USA.gov is the U.S. government's official web portal to all federal, state and local government web resources and services.